Hourly Data Report for July 05, 2021

WIARTON A
ONTARIO
Current Station Operator: NAVCAN

44°44'39.000" N
81°06'31.000" W
221.90 m
6119499
71633
YVV

Download Data

Hourly Data (July 2021)
Hourly Data Report for July 5, 2021
TIME
LST
Temp Definition
°C
Dew Point Definition
°C
Rel Hum Definition
%
Precip. Amount Definition
mm

Wind Dir Definition
10's deg

Wind Spd Definition
km/h
Visibility Definition
km
Stn Press Definition
kPa
Hmdx Definition


Wind Chill Definition


Weather Definition


00:00 20.2 18.2 88   15 16 24.1 98.57 26   LegendNANA
01:00 21.4 17.8 80   18 22 24.1 98.54 27   Mainly Clear
02:00 21.1 17.1 78   19 23 24.1 98.52 26   LegendNANA
03:00 20.8 16.5 76   19 21 24.1 98.52 26   LegendNANA
04:00 20.3 16.6 79   20 15 24.1 98.52 25   Clear
05:00 19.4 16.6 83   19 15 24.1 98.53     LegendNANA
06:00 20.4 17.1 81   19 14 24.1 98.52 26   LegendNANA
07:00 22.0 17.9 77   19 17 24.1 98.54 28   Clear
08:00 23.7 18.5 72   22 18 24.1 98.57 30   LegendNANA
09:00 24.4 19.1 72   23 24 24.1 98.58 31   LegendNANA
10:00 25.7 20.0 70   22 20 24.1 98.55 33   Mainly Clear
11:00 26.5 20.3 68   22 24 24.1 98.50 34   LegendNANA
12:00 27.1 20.8 68   23 18 24.1 98.46 35   LegendNANA
13:00 27.3 20.7 67   25 22 24.1 98.46 35   Mostly Cloudy
14:00 26.5 20.9 71   26 15 24.1 98.48 35   LegendNANA
15:00 24.7 20.4 77   26 12 24.1 98.47 33   LegendNANA
16:00 19.6 17.1 85   32 14 9.7 98.54     Thunderstorms,Rain Showers
17:00 19.8 18.6 93   10 9 16.1 98.38     LegendNANA
18:00 21.1 19.7 92   15 15 24.1 98.33 28   LegendNANA
19:00 23.4 19.7 79   20 16 24.1 98.33 31   Mostly Cloudy
20:00 23.4 20.2 82   21 10 24.1 98.34 31   LegendNANA
21:00 22.8 19.0 79   26 17 19.3 98.44 30   Thunderstorms,Rain Showers
22:00 19.4 17.3 87   32 8 19.3 98.48     Thunderstorms
23:00 19.0 17.6 91   23 15 24.1 98.43     LegendNANA

Notes on Data Quality.

Legend

  • E = Estimated
  • M = Missing
  • NA = Not Available*
  • [empty] = Indicates an unobserved value
Date modified: